Location: New Frontier Mobile Home Park
(32.8448°N, 116.9675°W)
Time: 23:10:03
(UTC+00:00)

Cosmos 1908 Rocket - Pass Details

Date: 14 July 2020
Orbit: 605 x 633 km, 82.5° (Epoch: 05 August)

Event Time Altitude Azimuth Distance (km) Brightness Sun altitude
Exits shadow 11:11:47 35° 246° (WSW) 1,016 4.1 -18.0°
Maximum altitude 11:12:49 41° 280° (W) 919 4.1 -17.8°
Drops below altitude 10° 11:17:03 10° 350° (N) 2,017 6.6 -17.1°
Sets 11:19:24 0° 358° (N) 2,926 7.6 -16.8°
